Wind_Speed
14 11 8 3 8 4 5 13 13 18 17 21 22 18 15 15 12 7 8 8 5 3 2 1 1 1 2 3 10 9 12 11 12 7 6 12 15 18 19 17 13 11 13 12
15 16 10 7 5 8 10 12 11 17 19 16 16 21 19 17 14 9 14 11 2 3 3 1 2 4 3 4 9 13 11 9 8 9 9 11 14 17 18 16 13 13 12 11
18 6 12 7 7 9 9 12 11 16 17 21 19 25 25 19 15 14 16 15 10 11 6 3 4 6 5 6 6 6 5 5 3 8 12 11 11 12 14 13 15 13 13 12
20 21 17 13 12 10 8 5 8 11 12 7 11 13 16 28 23 18 17 11 7 8 8 5 8 8 8 7 7 4 5 5 5 4 7 11 14 11 11 13 18 16 17 13
15 14 17 17 17 11 10 8 5 7 11 10 10 9 13 15 21 17 20 10 10 12 11 8 9 11 9 8 7 7 4 5 3 1 0 6 14 17 11 9 21 19 15 12
21 15 13 10 13 12 9 6 4 6 6 5 6 11 11 17 18 13 17 17 13 13 13 13 11 11 9 9 8 9 9 15 7 0 6 5 12 18 17 18 19 17 13 8
16 18 16 12 11 10 12 5 2 2 2 3 9 6 15 5 10 13 19 17 12 10 13 11 10 10 10 10 9 14 11 12 18 16 11 14 18 23 21 19 15 13 8 6
21 12 20 15 13 12 14 11 3 3 2 6 12 7 6 4 17 19 17 18 15 12 14 16 12 12 11 13 14 14 11 14 7 13 16 12 15 20 19 15 11 8 6 2
19 21 16 22 20 16 13 9 11 4 5 5 5 13 21 13 15 20 18 16 12 15 18 16 17 14 14 15 15 14 12 9 12 8 5 5 16 15 19 12 8 7 3 3
19 16 25 22 18 20 20 11 5 7 3 4 5 10 10 6 14 19 23 18 15 15 20 17 18 16 15 15 16 15 13 12 12 7 5 5 3 1 5 5 3 2 1 3
19 17 12 28 32 26 23 18 13 8 5 3 4 7 15 9 16 21 23 18 15 16 19 18 19 19 16 16 14 14 13 14 15 12 5 5 4 3 4 4 4 2 2 6
30 18 17 14 18 23 24 18 13 12 6 7 3 8 17 5 22 26 22 17 15 17 19 19 18 17 19 17 14 12 11 11 12 11 9 9 9 7 4 1 2 5 9 9
30 19 16 18 22 19 15 22 21 19 12 12 5 5 10 1 16 23 23 18 14 13 19 21 20 18 16 15 14 11 11 9 9 6 7 7 5 5 3 2 4 9 7 6
27 26 28 27 18 16 22 25 22 22 14 15 17 10 0 2 17 26 23 18 14 14 20 20 17 14 13 13 13 10 9 9 8 7 8 8 6 5 3 4 6 6 5 5
21 19 30 33 29 30 25 29 33 29 29 20 15 16 13 8 20 25 20 20 17 16 17 18 17 15 14 14 13 12 11 9 8 8 9 8 7 6 7 6 5 5 5 4
13 11 18 23 29 33 30 28 27 24 20 30 27 29 18 13 20 27 25 22 21 18 14 14 17 17 15 14 13 12 12 11 10 10 9 9 10 7 2 4 3 4 3 3
15 11 10 10 20 25 33 39 30 33 29 24 25 16 16 11 19 32 30 27 23 21 19 17 14 16 15 14 13 12 13 12 11 10 8 6 5 3 7 6 4 3 2 2
17 14 11 7 11 15 21 23 30 32 30 29 26 23 16 7 11 30 31 26 25 26 23 18 18 19 18 16 15 15 14 13 11 7 4 1 2 3 6 4 3 1 1 1
19 18 10 7 13 17 18 24 22 28 32 28 21 17 17 13 11 19 34 29 23 22 24 21 17 18 19 16 14 14 14 13 9 4 1 3 3 3 4 3 2 3 3 2
26 23 20 11 9 12 16 16 21 21 19 21 25 16 12 16 20 19 30 33 29 28 21 22 21 22 20 18 16 14 14 10 7 5 5 4 4 4 4 4 4 4 4 3
31 34 33 24 14 12 17 16 21 15 9 17 22 21 16 16 21 7 21 35 33 29 31 25 26 21 20 19 18 17 16 13 10 8 7 5 6 4 4 5 6 6 5 4
29 27 30 23 19 23 23 22 18 17 23 14 13 20 27 20 21 20 14 25 38 34 34 29 28 26 23 19 20 19 16 14 9 7 7 7 6 6 7 7 8 8 6 4
25 26 24 25 26 13 32 29 30 20 25 29 24 18 26 22 12 21 17 23 37 36 32 31 30 30 26 20 21 20 16 12 7 7 8 9 9 9 9 10 10 9 8 7
37 34 35 24 26 29 33 28 28 23 27 23 29 28 27 26 17 16 26 25 32 38 33 31 31 34 31 23 23 22 17 12 7 9 10 11 12 12 14 13 11 10 8 7
36 36 44 44 34 29 40 32 25 26 31 27 26 28 25 22 12 21 18 30 31 39 36 34 29 32 33 27 26 24 19 13 7 10 11 13 16 17 18 16 13 11 9 7
42 44 43 42 38 43 38 45 37 32 32 32 31 27 25 27 18 16 16 24 34 38 38 35 32 31 36 29 25 26 20 15 10 9 13 11 19 21 20 18 14 12 9 8
Wind_Direction
209 216 219 185 211 229 266 320 229 228 236 226 242 250 242 259 255 199 143 113 206 195 168 3 262 3 78 73 40 77 136 151 162 168 196 218 193 208 195 199 188 190 220 212
213 224 229 238 235 249 260 280 238 231 229 232 264 259 249 250 251 227 248 222 200 310 216 228 202 176 136 134 89 96 104 139 179 194 182 175 196 202 201 203 197 209 213 199
215 188 218 244 271 298 268 281 268 229 243 240 250 262 254 244 240 240 234 254 269 266 216 169 174 177 174 179 169 143 91 89 139 187 199 201 191 195 208 209 201 200 214 201
224 225 242 264 275 278 245 295 247 233 237 225 230 276 262 247 251 249 230 250 238 180 201 178 175 175 185 192 205 174 178 135 95 119 186 202 190 179 179 191 206 205 209 205
221 229 240 256 264 247 253 297 262 248 235 237 245 263 275 240 241 219 217 190 161 196 189 162 167 172 182 186 183 172 161 148 133 237 99 183 185 191 199 213 189 198 202 213
227 230 234 253 236 209 279 282 245 262 246 250 270 234 275 232 234 221 199 181 170 173 168 185 186 185 178 183 178 163 141 87 57 12 252 244 172 177 168 161 172 178 191 191
220 229 231 221 198 227 271 227 281 235 208 272 310 243 261 221 194 192 192 186 187 204 204 201 195 187 186 165 160 135 128 116 72 73 97 124 132 152 158 164 169 165 169 187
208 214 208 208 228 257 265 228 232 295 298 309 310 248 300 259 209 190 193 210 210 208 195 193 181 172 181 168 164 169 154 147 125 90 69 104 154 156 150 154 161 168 194 207
217 223 227 230 240 249 249 225 242 230 278 285 253 283 312 260 208 203 203 185 191 188 189 181 183 172 182 181 177 185 180 157 170 165 139 77 140 142 137 114 122 132 161 103
228 218 222 233 237 242 238 256 203 209 245 262 266 285 277 305 208 196 179 178 179 189 184 180 181 178 179 182 184 193 192 179 172 178 193 182 163 99 118 125 115 205 230 284
212 216 219 227 237 239 232 234 214 194 194 265 305 313 324 319 192 186 177 177 189 197 192 190 182 181 184 183 181 185 187 187 190 197 217 204 205 270 74 112 174 189 306 303
215 221 231 227 229 230 239 231 230 229 217 219 255 293 344 334 182 169 168 170 185 196 199 184 182 181 178 176 181 186 187 183 187 190 185 178 174 196 226 173 341 298 280 288
213 213 221 240 244 238 222 235 240 240 267 235 242 310 359 71 182 171 165 176 183 189 187 174 171 171 178 181 181 180 190 181 184 178 170 171 201 206 219 267 285 277 305 310
211 216 221 225 231 223 227 239 251 251 243 252 246 255 273 343 176 173 172 172 165 158 164 166 169 171 179 186 185 182 194 185 177 186 195 199 203 214 229 262 283 303 330 329
208 218 224 230 240 246 244 246 250 253 250 233 271 280 249 204 185 174 178 180 183 168 176 181 180 183 194 195 196 196 198 187 189 198 196 192 196 217 248 249 288 337 328 330
213 226 227 231 234 241 239 240 248 263 245 251 256 269 278 214 202 193 188 194 189 197 180 183 196 199 205 203 202 203 199 199 198 200 206 215 227 224 241 288 316 328 327 338
226 220 224 236 237 239 237 235 239 250 254 257 255 274 291 264 222 201 198 196 194 197 193 190 196 208 212 197 197 199 198 192 195 199 209 241 237 248 339 330 325 325 331 341
226 225 229 241 231 230 247 244 243 250 254 258 265 264 281 265 228 202 202 202 201 204 194 194 204 210 206 195 192 190 194 189 181 177 177 303 346 317 283 283 287 286 262 233
230 232 235 229 233 258 249 241 239 241 250 249 249 249 277 252 243 214 199 198 197 190 186 186 204 217 211 213 192 187 188 179 166 158 232 281 267 250 246 246 223 207 197 180
228 225 223 232 231 242 242 246 237 237 248 242 235 226 233 271 274 221 205 196 196 197 188 188 199 210 213 211 195 189 187 178 186 206 248 259 254 243 229 205 190 187 174 163
211 219 223 228 237 240 218 222 223 207 208 233 233 232 246 231 254 246 212 200 196 201 204 201 205 207 211 209 197 192 187 189 197 223 247 241 229 217 198 184 181 172 171 174
217 207 216 213 223 235 217 225 223 208 201 192 211 220 215 231 247 237 222 212 200 198 202 202 205 207 211 210 200 194 187 190 204 234 235 227 216 201 182 181 177 178 167 148
218 211 214 217 222 211 220 227 236 216 210 217 219 196 218 226 236 193 201 211 198 206 210 213 214 211 207 213 206 194 181 191 226 233 219 212 214 196 184 181 180 171 155 132
222 222 223 223 222 213 217 215 220 210 217 219 225 233 233 235 241 214 223 213 207 205 212 211 216 212 209 215 207 190 183 198 221 225 210 207 202 188 183 176 169 159 145 130
225 226 229 233 222 212 218 216 206 203 217 221 222 226 236 227 211 244 230 216 211 208 206 212 213 214 208 215 207 188 190 195 208 220 208 199 191 187 181 178 171 162 159 157
231 230 229 235 233 220 219 224 223 206 212 224 225 226 229 230 229 238 241 209 207 202 198 204 210 210 204 211 212 193 195 200 213 225 213 199 191 190 188 184 176 176 181 190
Height
3183 3185 3186 3187 3188 3188 3188 3189 3188 3190 3191 3193 3192 3192 3193 3193 3193 3196 3195 3196 3197 3197 3197 3198 3199 3200 3198 3197 3195 3192 3194 3196 3198 3200 3201 3204 3208 3212 3215 3219 3222 3226 3228 3229
3182 3182 3184 3185 3186 3187 3187 3186 3187 3188 3189 3190 3190 3189 3189 3189 3190 3193 3193 3195 3196 3197 3197 3197 3198 3199 3198 3198 3198 3197 3198 3198 3199 3200 3202 3204 3207 3211 3215 3219 3221 3225 3227 3229
3179 3181 3182 3184 3184 3185 3185 3184 3185 3186 3187 3186 3187 3184 3184 3185 3186 3188 3190 3191 3193 3195 3196 3196 3196 3197 3198 3198 3198 3199 3199 3199 3198 3198 3200 3203 3206 3210 3214 3218 3221 3223 3225 3228
3177 3178 3180 3181 3182 3184 3183 3182 3182 3183 3184 3183 3183 3179 3178 3179 3181 3183 3186 3188 3190 3192 3194 3194 3195 3196 3197 3198 3198 3199 3199 3199 3199 3199 3200 3202 3206 3209 3212 3215 3218 3222 3224 3225
3175 3177 3179 3179 3180 3181 3182 3181 3181 3181 3181 3181 3180 3180 3172 3173 3174 3177 3181 3185 3187 3190 3192 3194 3194 3194 3196 3197 3198 3199 3199 3200 3200 3200 3202 3203 3205 3209 3211 3212 3215 3220 3222 3225
3172 3174 3176 3177 3177 3178 3179 3180 3180 3179 3179 3179 3177 3178 3165 3166 3169 3173 3178 3183 3185 3188 3190 3192 3193 3193 3194 3196 3196 3198 3200 3201 3200 3199 3199 3201 3204 3207 3210 3212 3216 3219 3223 3225
3169 3170 3173 3175 3176 3177 3177 3179 3180 3179 3178 3175 3174 3173 3162 3164 3167 3171 3175 3179 3182 3184 3187 3190 3191 3192 3193 3195 3196 3198 3200 3203 3202 3202 3201 3202 3204 3207 3210 3213 3216 3220 3221 3222
3166 3169 3170 3172 3174 3176 3175 3177 3179 3176 3175 3174 3171 3167 3162 3161 3163 3167 3171 3175 3178 3181 3184 3187 3190 3191 3193 3195 3197 3198 3201 3203 3203 3206 3204 3203 3205 3208 3211 3214 3216 3218 3220 3220
3162 3166 3167 3170 3171 3174 3172 3174 3176 3176 3175 3175 3168 3163 3159 3158 3160 3164 3168 3171 3175 3178 3181 3184 3188 3190 3192 3194 3196 3198 3201 3204 3204 3207 3208 3207 3207 3210 3211 3213 3215 3217 3219 3220
3159 3162 3163 3166 3167 3169 3170 3171 3175 3175 3174 3170 3164 3162 3159 3157 3159 3162 3166 3170 3173 3176 3179 3182 3186 3189 3191 3193 3196 3198 3200 3204 3206 3207 3207 3207 3210 3210 3211 3213 3215 3217 3218 3219
3154 3158 3159 3160 3160 3164 3166 3166 3169 3171 3171 3168 3164 3159 3157 3154 3156 3161 3167 3170 3173 3175 3178 3181 3184 3187 3191 3193 3195 3198 3200 3203 3204 3207 3208 3210 3211 3212 3213 3215 3217 3217 3217 3218
3150 3153 3155 3157 3157 3159 3160 3162 3165 3167 3169 3167 3166 3161 3155 3152 3156 3161 3166 3170 3172 3174 3176 3179 3183 3186 3190 3193 3195 3199 3201 3203 3205 3207 3209 3210 3213 3213 3213 3213 3214 3216 3217 3217
3144 3147 3151 3153 3155 3155 3156 3158 3161 3163 3165 3163 3164 3161 3156 3156 3157 3161 3165 3169 3171 3173 3175 3179 3183 3186 3190 3193 3196 3199 3200 3203 3204 3207 3209 3211 3212 3212 3213 3214 3215 3215 3215 3214
3139 3141 3143 3144 3149 3152 3152 3153 3156 3159 3162 3160 3158 3160 3158 3158 3159 3162 3165 3168 3171 3174 3177 3180 3183 3186 3190 3193 3196 3198 3201 3203 3204 3207 3209 3211 3212 3213 3213 3214 3213 3212 3212 3211
3134 3136 3137 3140 3143 3145 3148 3150 3150 3152 3153 3157 3157 3155 3157 3159 3161 3163 3166 3168 3170 3173 3177 3180 3183 3186 3190 3192 3194 3197 3200 3202 3204 3206 3208 3210 3211 3211 3211 3211 3211 3210 3210 3210
3131 3132 3133 3135 3137 3138 3140 3143 3144 3147 3150 3150 3152 3150 3153 3157 3158 3160 3164 3166 3169 3173 3177 3180 3183 3186 3188 3191 3194 3196 3198 3201 3203 3205 3207 3208 3209 3209 3210 3210 3210 3210 3209 3209
3128 3129 3130 3131 3132 3133 3132 3132 3138 3141 3144 3147 3147 3146 3149 3150 3153 3156 3160 3163 3167 3172 3175 3178 3180 3184 3187 3190 3193 3195 3197 3199 3202 3204 3206 3207 3207 3207 3207 3208 3208 3208 3209 3209
3125 3126 3127 3127 3128 3123 3125 3129 3132 3134 3136 3139 3142 3143 3146 3147 3147 3151 3157 3161 3164 3169 3173 3175 3178 3182 3186 3188 3190 3192 3195 3198 3201 3203 3205 3205 3206 3206 3208 3207 3208 3208 3207 3208
3120 3122 3124 3124 3122 3119 3120 3122 3126 3127 3129 3134 3136 3140 3143 3146 3147 3148 3152 3158 3163 3166 3170 3173 3176 3180 3184 3186 3188 3191 3194 3197 3199 3202 3203 3204 3205 3206 3206 3206 3206 3206 3207 3207
3113 3116 3119 3118 3118 3113 3118 3119 3120 3122 3123 3127 3131 3134 3139 3142 3143 3145 3149 3154 3159 3164 3168 3171 3174 3177 3182 3184 3186 3189 3192 3196 3198 3200 3202 3202 3203 3204 3205 3205 3205 3205 3206 3206
3103 3107 3108 3112 3112 3109 3113 3114 3116 3118 3123 3121 3123 3129 3133 3137 3139 3143 3145 3150 3157 3160 3165 3168 3171 3174 3179 3182 3184 3187 3191 3194 3196 3198 3200 3201 3202 3203 3203 3203 3204 3205 3206 3206
3095 3098 3099 3105 3106 3104 3105 3109 3111 3112 3113 3116 3118 3124 3128 3131 3133 3137 3141 3144 3150 3155 3159 3163 3168 3172 3175 3179 3182 3185 3189 3192 3194 3195 3197 3198 3199 3200 3201 3202 3204 3205 3205 3206
3089 3087 3089 3092 3089 3094 3100 3102 3102 3107 3110 3112 3115 3119 3122 3125 3129 3131 3135 3140 3145 3151 3155 3160 3165 3169 3173 3176 3179 3182 3186 3189 3192 3193 3194 3196 3198 3199 3200 3202 3203 3204 3205 3205
3076 3079 3079 3082 3084 3089 3093 3093 3096 3101 3105 3107 3109 3113 3117 3121 3124 3127 3129 3133 3139 3145 3149 3155 3158 3163 3168 3172 3176 3180 3183 3187 3188 3190 3192 3193 3195 3197 3199 3201 3203 3204 3204 3205
3067 3070 3069 3070 3078 3082 3084 3086 3090 3094 3098 3101 3104 3108 3110 3114 3117 3121 3122 3126 3131 3138 3144 3148 3154 3158 3163 3168 3172 3176 3180 3183 3185 3187 3189 3190 3193 3195 3197 3199 3201 3202 3203 3205
3053 3055 3057 3058 3068 3073 3075 3078 3082 3086 3089 3093 3098 3102 3105 3108 3113 3115 3116 3117 3123 3129 3137 3143 3148 3153 3158 3163 3168 3172 3176 3180 3182 3184 3186 3188 3191 3192 3194 3196 3199 3201 3202 3203